TimeEST,TemperatureF,Dew PointF,Humidity,Sea Level PressureIn,VisibilityMPH,Wind Direction,Wind SpeedMPH,Gust SpeedMPH,PrecipitationIn,Events,Conditions,WindDirDegrees,DateUTC
12:30 AM,66.2,64.4,94,30.09,10.0,North,5.8,-,N/A,,Mostly Cloudy,350,2012-11-19 05:30:00
12:53 AM,66.0,64.0,93,30.10,10.0,North,9.2,-,N/A,,Overcast,360,2012-11-19 05:53:00
1:16 AM,66.2,62.6,88,30.09,10.0,North,9.2,-,N/A,,Mostly Cloudy,360,2012-11-19 06:16:00
1:53 AM,64.9,63.0,93,30.09,10.0,North,9.2,-,N/A,,Mostly Cloudy,360,2012-11-19 06:53:00
2:18 AM,64.4,62.6,94,30.09,10.0,North,9.2,-,N/A,,Mostly Cloudy,360,2012-11-19 07:18:00
2:39 AM,64.4,62.6,94,30.09,10.0,North,10.4,-,N/A,,Mostly Cloudy,360,2012-11-19 07:39:00
2:53 AM,64.0,62.1,93,30.08,10.0,North,9.2,-,N/A,,Scattered Clouds,360,2012-11-19 07:53:00
3:53 AM,63.0,61.0,93,30.08,10.0,North,9.2,-,N/A,,Clear,350,2012-11-19 08:53:00
4:53 AM,63.0,60.1,90,30.09,10.0,North,10.4,-,N/A,,Mostly Cloudy,350,2012-11-19 09:53:00
5:53 AM,62.1,59.0,90,30.10,10.0,North,9.2,-,N/A,,Clear,360,2012-11-19 10:53:00
6:53 AM,61.0,59.0,93,30.11,10.0,North,9.2,-,N/A,,Clear,360,2012-11-19 11:53:00
7:53 AM,64.0,59.0,84,30.12,10.0,North,11.5,-,N/A,,Clear,360,2012-11-19 12:53:00
8:53 AM,66.9,57.0,70,30.13,10.0,North,13.8,-,N/A,,Clear,10,2012-11-19 13:53:00
9:53 AM,70.0,57.0,63,30.14,10.0,North,8.1,-,N/A,,Clear,360,2012-11-19 14:53:00
10:53 AM,73.0,57.0,57,30.12,10.0,North,6.9,-,N/A,,Clear,10,2012-11-19 15:53:00
11:53 AM,73.0,54.0,51,30.11,10.0,NNW,15.0,-,N/A,,Clear,330,2012-11-19 16:53:00
12:53 PM,73.0,55.9,55,30.07,10.0,North,10.4,-,N/A,,Clear,350,2012-11-19 17:53:00
1:53 PM,75.0,55.9,51,30.04,10.0,North,11.5,-,N/A,,Clear,350,2012-11-19 18:53:00
2:53 PM,75.9,54.0,46,30.02,10.0,North,12.7,-,N/A,,Clear,360,2012-11-19 19:53:00
3:53 PM,75.0,57.0,53,30.02,10.0,North,11.5,-,N/A,,Clear,350,2012-11-19 20:53:00
4:53 PM,71.1,57.9,63,30.02,10.0,North,11.5,-,N/A,,Clear,10,2012-11-19 21:53:00
5:53 PM,66.0,57.9,75,30.04,10.0,North,9.2,-,N/A,,Clear,360,2012-11-19 22:53:00
6:53 PM,63.0,57.9,84,30.05,10.0,North,9.2,-,N/A,,Clear,350,2012-11-19 23:53:00
7:53 PM,62.1,57.0,84,30.07,10.0,North,11.5,-,N/A,,Clear,360,2012-11-20 00:53:00
8:53 PM,62.1,57.0,84,30.07,10.0,North,9.2,-,N/A,,Clear,360,2012-11-20 01:53:00
9:27 PM,62.6,57.2,82,30.07,10.0,North,10.4,-,N/A,,Mostly Cloudy,360,2012-11-20 02:27:00
9:53 PM,62.6,57.2,82,30.07,10.0,North,8.1,-,N/A,,Overcast,360,2012-11-20 02:53:00
10:53 PM,62.1,57.0,84,30.06,10.0,North,10.4,-,N/A,,Overcast,10,2012-11-20 03:53:00
11:53 PM,62.1,57.0,84,30.05,10.0,North,10.4,-,N/A,,Overcast,360,2012-11-20 04:53:00